Aérodrome :
LOGIN :

S'inscrire | Disclaimer

   EN    FR    IT 

 










Légende :    VFR   VFR Marginal   IFR   IFR Intensif   IFR Très Intensif
Visi : 
Plafond : 
>= 8 km
>= 3000ft
5 à 8 km
1000 à 3000 ft
1500m à 5 km
500 à 1000 ft
800 à 1500m
200 à 500 ft
< 800m
< 200 ft
Symboles :   Orages  Brouillard  Fortes neiges  Fortes précipitations  Vent > 20 kt
SIGMETs :   Divers  Orages  Givrage  Turbulence  Onde Orograph.  Cendres Volcan.






- Altitude de l'aérodrome : 697 ft
- Code IATA : PEG


LIRZ - San Edigio Perugia

DERNIER METAR :
  • 251420Z AUTO 15007KT 9999 FEW027/// 16/14 Q1016

METARs EXPIRÉS :
  • 251350Z AUTO 15008KT 9999 BKN049/// 16/14 Q1016
  • 251320Z AUTO 15005KT 9999 FEW014/// BKN048/// 16/14 Q1016
  • 251250Z AUTO 18004KT 150V210 9999 FEW025/// BKN046/// 16/14 Q1017 REDZRERA
  • 251220Z AUTO 19003KT 160V220 9999 DZRA BKN027/// 16/13 Q1017
  • 251150Z AUTO 20004KT 160V230 9999 BKN018/// BKN044/// 16/14 Q1017

TAF TAF LIRZ
Valide du 25 à 12h jusqu'au 26 à 12h UTC


251100Z 2512/2612 VRB05KT 9999 BKN030



MET'MAP, la Météo Aéronautique d'un coup d'oeil ! - Copyright ORBIFLY Décembre 2007 - Disclaimer

ORBIFLY MET'MAP TEAM :

Programmation & Développement : Alexandra Zaïnal
Sur une idée originale de : Baudouin d'Aumeries
Assistance à la programmation : Marc-Olivier Méhu
Soutien technique & logistique : Manuel Goepfert

Contact : metmap@orbifly.com




SOURCES & CREDITS :

   NOAA